Hourly Weather São Luís

Today, 13 May, Thursday

Time Temperature Precipitation Wind Pressure Humidity
00:00 +26°C° 0.3 mm 2 mps 758 mmHg 90%
01:00 +26°C° 0.6 mm 2 mps 758 mmHg 91%
02:00 +26°C° 0.6 mm 1 mps 757 mmHg 92%
03:00 +26°C° 0 mm 1 mps 757 mmHg 92%
04:00 +26°C° 0.2 mm 1 mps 757 mmHg 92%
05:00 +24°C° 0.2 mm 0 mps 758 mmHg 91%
06:00 +24°C° 0.2 mm 0 mps 758 mmHg 91%
07:00 +24°C° 0 mm 0 mps 758 mmHg 88%
08:00 +27°C° 0 mm 1 mps 759 mmHg 86%
09:00 +28°C° 0 mm 1 mps 759 mmHg 83%
10:00 +29°C° 0.4 mm 1 mps 759 mmHg 78%
11:00 +30°C° 0.4 mm 1 mps 758 mmHg 73%
12:00 +31°C° 0.4 mm 1 mps 758 mmHg 68%
13:00 +31°C° 0.1 mm 1 mps 758 mmHg 67%
14:00 +32°C° 0.1 mm 2 mps 757 mmHg 67%
15:00 +32°C° 0.1 mm 2 mps 757 mmHg 66%
16:00 +30°C° 0.3 mm 2 mps 757 mmHg 73%
17:00 +29°C° 0.3 mm 2 mps 757 mmHg 80%
18:00 +28°C° 0.3 mm 3 mps 757 mmHg 87%
19:00 +27°C° 0.6 mm 3 mps 758 mmHg 88%
20:00 +27°C° 0.6 mm 3 mps 758 mmHg 90%
21:00 +27°C° 0.6 mm 2 mps 759 mmHg 92%
22:00 +27°C° 0.9 mm 3 mps 758 mmHg 91%
23:00 +27°C° 0.9 mm 3 mps 758 mmHg 91%

Tomorrow, 14 May, Friday

Time Temperature Precipitation Wind Pressure Humidity
00:00 +27°C° 0.9 mm 3 mps 758 mmHg 91%
01:00 +26°C° 0.3 mm 3 mps 758 mmHg 91%
02:00 +26°C° 0.3 mm 3 mps 757 mmHg 92%
03:00 +26°C° 0.3 mm 3 mps 757 mmHg 93%
04:00 +26°C° 1 mm 3 mps 757 mmHg 92%
05:00 +26°C° 1 mm 3 mps 757 mmHg 91%
06:00 +26°C° 1 mm 3 mps 758 mmHg 91%
07:00 +27°C° 1.3 mm 3 mps 758 mmHg 90%
08:00 +28°C° 1.3 mm 3 mps 759 mmHg 89%
09:00 +29°C° 1.3 mm 3 mps 759 mmHg 88%
10:00 +29°C° 1.3 mm 3 mps 759 mmHg 86%
11:00 +29°C° 1.3 mm 3 mps 759 mmHg 83%
12:00 +29°C° 1.3 mm 3 mps 759 mmHg 81%
13:00 +30°C° 1 mm 3 mps 758 mmHg 79%
14:00 +30°C° 1 mm 2 mps 757 mmHg 77%
15:00 +30°C° 1 mm 2 mps 757 mmHg 76%
16:00 +29°C° 0.9 mm 3 mps 757 mmHg 80%
17:00 +28°C° 0.9 mm 3 mps 757 mmHg 84%
18:00 +27°C° 0.9 mm 3 mps 757 mmHg 88%
19:00 +27°C° 1.4 mm 3 mps 758 mmHg 89%
20:00 +27°C° 1.4 mm 3 mps 758 mmHg 91%
21:00 +27°C° 1.4 mm 3 mps 759 mmHg 92%
22:00 +26°C° 1.8 mm 3 mps 759 mmHg 92%
23:00 +26°C° 1.8 mm 2 mps 758 mmHg 92%

Day after tomorrow, 15 May, Saturday

Time Temperature Precipitation Wind Pressure Humidity
00:00 +26°C° 1.8 mm 2 mps 758 mmHg 92%
01:00 +26°C° 0.7 mm 3 mps 758 mmHg 92%
02:00 +26°C° 0.7 mm 3 mps 758 mmHg 92%
03:00 +26°C° 0.7 mm 3 mps 757 mmHg 92%
04:00 +26°C° 3 mm 4 mps 758 mmHg 93%
05:00 +26°C° 3 mm 4 mps 758 mmHg 93%
06:00 +26°C° 3 mm 5 mps 758 mmHg 93%
07:00 +26°C° 1.1 mm 4 mps 759 mmHg 93%
08:00 +26°C° 1.1 mm 3 mps 759 mmHg 93%
09:00 +27°C° 1.1 mm 3 mps 760 mmHg 93%
10:00 +27°C° 1.6 mm 3 mps 759 mmHg 92%
11:00 +27°C° 1.6 mm 4 mps 759 mmHg 92%
12:00 +28°C° 1.6 mm 4 mps 759 mmHg 91%
13:00 +27°C° 2.1 mm 5 mps 758 mmHg 92%
14:00 +27°C° 2.1 mm 5 mps 758 mmHg 93%
15:00 +26°C° 2.1 mm 6 mps 758 mmHg 93%
16:00 +26°C° 1.6 mm 6 mps 758 mmHg 93%
17:00 +26°C° 1.6 mm 6 mps 758 mmHg 93%
18:00 +26°C° 1.6 mm 6 mps 759 mmHg 93%
19:00 +26°C° 0.5 mm 5 mps 759 mmHg 93%
20:00 +25°C° 0.5 mm 4 mps 759 mmHg 94%
21:00 +25°C° 0.5 mm 3 mps 760 mmHg 94%
22:00 +25°C° 0.5 mm 3 mps 760 mmHg 95%
23:00 +25°C° 0.5 mm 3 mps 760 mmHg 95%

16 May, Sunday

Time Temperature Precipitation Wind Pressure Humidity
00:00 +25°C° 0.5 mm 2 mps 759 mmHg 95%
01:00 +25°C° 1.1 mm 2 mps 759 mmHg 95%
02:00 +25°C° 1.1 mm 2 mps 759 mmHg 96%
03:00 +25°C° 1.1 mm 2 mps 758 mmHg 96%
04:00 +25°C° 0.3 mm 2 mps 758 mmHg 95%
05:00 +25°C° 0.3 mm 3 mps 759 mmHg 94%
06:00 +25°C° 0.3 mm 3 mps 759 mmHg 93%
07:00 +26°C° 0.1 mm 3 mps 759 mmHg 92%
08:00 +26°C° 0.1 mm 3 mps 760 mmHg 91%
09:00 +26°C° 0.1 mm 2 mps 760 mmHg 90%
10:00 +27°C° 0.4 mm 2 mps 760 mmHg 87%
11:00 +28°C° 0.4 mm 2 mps 760 mmHg 83%
12:00 +29°C° 0.4 mm 2 mps 759 mmHg 80%
13:00 +29°C° 0.5 mm 2 mps 759 mmHg 80%
14:00 +29°C° 0.5 mm 2 mps 758 mmHg 79%
15:00 +29°C° 0.5 mm 2 mps 758 mmHg 79%
16:00 +28°C° 0.8 mm 2 mps 758 mmHg 83%
17:00 +28°C° 0.8 mm 3 mps 758 mmHg 87%
18:00 +27°C° 0.8 mm 3 mps 758 mmHg 92%
19:00 +26°C° 0.5 mm 3 mps 759 mmHg 92%
20:00 +26°C° 0.5 mm 2 mps 759 mmHg 92%
21:00 +26°C° 0.5 mm 2 mps 760 mmHg 92%
22:00 +26°C° 0.8 mm 2 mps 760 mmHg 92%
23:00 +26°C° 0.8 mm 2 mps 759 mmHg 92%

17 May, Monday

Time Temperature Precipitation Wind Pressure Humidity
00:00 +26°C° 0.8 mm 2 mps 759 mmHg 92%
01:00 +26°C° 0.1 mm 2 mps 759 mmHg 92%
02:00 +26°C° 0.1 mm 2 mps 758 mmHg 92%
03:00 +26°C° 0.1 mm 2 mps 758 mmHg 91%
04:00 +26°C° 0.6 mm 2 mps 758 mmHg 91%
05:00 +26°C° 0.6 mm 2 mps 758 mmHg 92%
06:00 +26°C° 0.6 mm 1 mps 759 mmHg 92%
07:00 +27°C° 0.7 mm 2 mps 759 mmHg 90%
08:00 +27°C° 0.7 mm 2 mps 759 mmHg 89%
09:00 +28°C° 0.7 mm 2 mps 760 mmHg 87%
10:00 +29°C° 0.6 mm 3 mps 760 mmHg 83%
11:00 +29°C° 0.6 mm 3 mps 759 mmHg 79%
12:00 +30°C° 0.6 mm 3 mps 759 mmHg 75%
13:00 +30°C° 0.7 mm 3 mps 759 mmHg 76%
14:00 +30°C° 0.7 mm 4 mps 758 mmHg 76%
15:00 +30°C° 0.7 mm 4 mps 757 mmHg 77%
16:00 +29°C° 0.5 mm 4 mps 758 mmHg 81%
17:00 +28°C° 0.5 mm 4 mps 758 mmHg 84%
18:00 +27°C° 0.5 mm 4 mps 758 mmHg 88%
19:00 +27°C° 0.7 mm 4 mps 758 mmHg 89%
20:00 +27°C° 0.7 mm 4 mps 759 mmHg 91%
21:00 +26°C° 0.7 mm 3 mps 759 mmHg 92%
22:00 +26°C° 1.4 mm 3 mps 759 mmHg 92%
23:00 +26°C° 1.4 mm 3 mps 759 mmHg 92%

18 May, Tuesday

Time Temperature Precipitation Wind Pressure Humidity
00:00 +26°C° 1.4 mm 3 mps 759 mmHg 92%
01:00 +26°C° 0.7 mm 3 mps 759 mmHg 92%
02:00 +26°C° 0.7 mm 3 mps 758 mmHg 93%
03:00 +26°C° 0.7 mm 3 mps 758 mmHg 93%
04:00 +26°C° 0.6 mm 3 mps 758 mmHg 93%
05:00 +26°C° 0.6 mm 3 mps 758 mmHg 93%
06:00 +26°C° 0.6 mm 3 mps 759 mmHg 94%
07:00 +27°C° 0.4 mm 4 mps 759 mmHg 91%
08:00 +28°C° 0.4 mm 4 mps 759 mmHg 89%
09:00 +29°C° 0.4 mm 5 mps 760 mmHg 87%
10:00 +30°C° 0.2 mm 4 mps 759 mmHg 80%
11:00 +32°C° 0.2 mm 4 mps 759 mmHg 73%
12:00 +33°C° 0.2 mm 4 mps 759 mmHg 65%
13:00 +32°C° 0.6 mm 4 mps 758 mmHg 69%
14:00 +32°C° 0.6 mm 4 mps 758 mmHg 73%
15:00 +30°C° 0.6 mm 4 mps 757 mmHg 77%
16:00 +29°C° 1.1 mm 4 mps 758 mmHg 81%
17:00 +28°C° 1.1 mm 4 mps 758 mmHg 86%
18:00 +27°C° 1.1 mm 5 mps 758 mmHg 90%
19:00 +27°C° 1.3 mm 4 mps 758 mmHg 91%
20:00 +27°C° 1.3 mm 4 mps 759 mmHg 91%
21:00 +27°C° 1.3 mm 4 mps 759 mmHg 92%
22:00 +27°C° 1.3 mm 5 mps 759 mmHg 92%
23:00 +26°C° 1.3 mm 5 mps 759 mmHg 93%
Show more